Terug naar catalogus

MOHAMMED VI-B

ActiefWetenschapSSO
NORAD 43717·PAYLOAD·🇲🇦 Morocco

Gelanceerd Nov 21, 2018 vanaf Guiana Space Centre

Loading…

Volgende Passages (komende 24 uur)

TLE

VersSource: Space-Track

Epoch: Sep 14, 2026, 12:41 UTC

1 43717U 18095A   26257.52867524  .00000449  00000-0  70683-4 0  9991
2 43717  97.9488 328.5859 0001117  95.8918 264.2419 14.77093790421371

Volg MOHAMMED VI-B in realtime met AllMySat

Download on the App Store